Fort Mitchell, AL

1:26 PM CST on December 04, 2016 (GMT -0600)
Lawson Army Air Field

Weather History for KLSF - December, 2013

Change the Weather History Date:

Friday, December 6, 2013

  Actual Average Record
Temperature  
Mean Temperature 73 °F -  
Max Temperature 79 °F 61 °F 79 °F (2013)
Min Temperature 67 °F 37 °F 24 °F (2000)
Cooling Degree Days 8    
Growing Degree Days 23 (Base 50)    
Moisture  
Dew Point 70 °F    
Average Humidity 92    
Maximum Humidity 100    
Minimum Humidity 69    
Precipitation  
Precipitation 0.11 in - - ()
Sea Level Pressure  
Sea Level Pressure 30.05 in    
Wind  
Wind Speed 9 mph (South)    
Max Wind Speed 18 mph    
Max Gust Speed 26 mph    
Visibility 10 miles    
Events Rain    
Averages and records for this station are not official NWS values.
T = Trace of Precipitation, MM = Missing Value Source: NWS Daily Summary

Daily Weather History Graph

Daily Weather History Graph

Search for Another Location

Airport or City:

Trip Planner

Search our weather history database for the weather conditions in past years. The results will help you decide how hot, cold, wet, or windy it might be!

Date:

Astronomy

Dec. 06, 2013 Rise Set
Actual Time 7:27 AM EST 5:34 PM EST
Civil Twilight 7:00 AM EST 6:01 PM EST
Nautical Twilight 6:30 AM EST 6:31 PM EST
Astronomical Twilight 6:00 AM EST 7:01 PM EST
Moon 10:40 AM EST (12/6) 9:56 PM EST (12/6)
Length of Visible Light 11h 00m
Length of Day
10h 07m
Waxing Crescent, 19% of the Moon is Illuminated
Dec 6
Waxing Crescent
Dec 9
First Quarter
Dec 17
Full
Dec 25
Last Quarter
Jan 1
New

Hourly Weather History & Observations

Time (EST) Temp. Dew Point Humidity Pressure Visibility Wind Dir Wind Speed Gust Speed Precip Events Conditions
12:58 AM 69.3 °F 68.9 °F 99% 30.06 in 10.0 mi South 4.6 mph - N/A   Overcast
1:13 AM 69.8 °F 69.8 °F 100% 30.06 in 9.0 mi South 9.2 mph - N/A   Overcast
1:33 AM 69.8 °F 69.8 °F 100% 30.05 in 10.0 mi South 10.4 mph - N/A   Overcast
1:48 AM 69.8 °F 68.0 °F 94% 30.05 in 10.0 mi SSE 8.1 mph - N/A   Overcast
1:58 AM 68.7 °F 68.4 °F 99% 30.06 in 10.0 mi South 6.9 mph - N/A   Overcast
2:58 AM 67.8 °F 67.8 °F 100% 30.04 in 10.0 mi SSE 5.8 mph - N/A   Mostly Cloudy
3:53 AM 68.0 °F 68.0 °F 100% 30.03 in 10.0 mi South 8.1 mph - N/A   Mostly Cloudy
3:58 AM 67.6 °F 67.6 °F 100% 30.04 in 10.0 mi South 8.1 mph - N/A   Mostly Cloudy
4:58 AM 69.3 °F 69.1 °F 99% 30.04 in 10.0 mi South 9.2 mph - N/A   Overcast
5:33 AM 69.8 °F 69.8 °F 100% 30.03 in 10.0 mi South 9.2 mph - N/A   Overcast
5:43 AM 69.8 °F 69.8 °F 100% 30.03 in 10.0 mi South 5.8 mph - N/A   Overcast
5:58 AM 69.6 °F 69.3 °F 99% 30.05 in 10.0 mi South 9.2 mph - N/A   Overcast
6:47 AM 69.8 °F 69.8 °F 100% 30.05 in 10.0 mi SSE 5.8 mph - N/A   Light Drizzle
6:56 AM 69.8 °F 69.8 °F 100% 30.05 in 10.0 mi South 6.9 mph - N/A   Overcast
6:58 AM 69.8 °F 69.8 °F 100% 30.06 in 10.0 mi South 6.9 mph - 0.00 in   Overcast
7:28 AM 69.8 °F 69.8 °F 100% 30.06 in 10.0 mi South 5.8 mph - N/A   Overcast
7:58 AM 68.9 °F 68.9 °F 100% 30.08 in 10.0 mi SSE 6.9 mph - N/A   Overcast
8:53 AM 69.8 °F 69.8 °F 100% 30.08 in 10.0 mi SSE 8.1 mph - N/A   Overcast
8:58 AM 69.4 °F 69.1 °F 99% 30.08 in 10.0 mi SSE 8.1 mph - N/A   Overcast
9:23 AM 69.8 °F 69.8 °F 100% 30.08 in 10.0 mi South 10.4 mph - N/A   Overcast
9:58 AM 71.4 °F 70.5 °F 97% 30.10 in 9.0 mi South 8.1 mph - N/A   Mostly Cloudy
10:03 AM 71.6 °F 69.8 °F 94% 30.09 in 8.0 mi South 8.1 mph - N/A   Overcast
10:48 AM 73.4 °F 69.8 °F 88% 30.09 in 4.0 mi South 12.7 mph - N/A   Overcast
10:58 AM 73.2 °F 69.4 °F 88% 30.10 in 5.0 mi South 12.7 mph - N/A   Mostly Cloudy
11:08 AM 75.2 °F 69.8 °F 83% 30.08 in 10.0 mi South 12.7 mph - N/A   Mostly Cloudy
11:28 AM 75.2 °F 69.8 °F 83% 30.08 in 7.0 mi South 17.3 mph 20.7 mph N/A   Overcast
11:58 AM 74.7 °F 68.9 °F 82% 30.08 in 10.0 mi South 13.8 mph - N/A   Overcast
12:18 PM 77.0 °F 69.8 °F 78% 30.06 in 10.0 mi South 17.3 mph 23.0 mph N/A   Mostly Cloudy
12:23 PM 77.0 °F 69.8 °F 78% 30.05 in 10.0 mi South 12.7 mph 23.0 mph N/A   Mostly Cloudy
12:33 PM 77.0 °F 69.8 °F 78% 30.05 in 10.0 mi SSW 16.1 mph 24.2 mph N/A   Mostly Cloudy
12:48 PM 77.0 °F 69.8 °F 78% 30.04 in 10.0 mi South 10.4 mph 23.0 mph N/A   Mostly Cloudy
12:58 PM 77.4 °F 68.9 °F 75% 30.04 in 10.0 mi South 13.8 mph - N/A   Mostly Cloudy
1:13 PM 77.0 °F 68.0 °F 74% 30.02 in 10.0 mi South 16.1 mph 26.5 mph N/A   Mostly Cloudy
1:48 PM 78.8 °F 69.8 °F 74% 30.01 in 10.0 mi South 16.1 mph - N/A   Overcast
1:53 PM 78.8 °F 69.8 °F 74% 30.01 in 10.0 mi SSW 18.4 mph 21.9 mph N/A   Overcast
1:58 PM 77.9 °F 68.7 °F 73% 30.01 in 10.0 mi South 12.7 mph 21.9 mph N/A   Overcast
2:03 PM 78.8 °F 68.0 °F 69% 30.01 in 10.0 mi South 12.7 mph 21.9 mph N/A   Overcast
2:28 PM 77.0 °F 68.0 °F 74% 30.01 in 10.0 mi South 16.1 mph - N/A Rain Light Rain
2:58 PM 73.0 °F 70.3 °F 91% 30.03 in 5.0 mi South 10.4 mph - 0.00 in Rain Rain
3:03 PM 73.4 °F 71.6 °F 94% 30.01 in 7.0 mi South 8.1 mph - N/A Rain Light Rain
3:06 PM 73.4 °F 71.6 °F 94% 30.01 in 10.0 mi South 8.1 mph - N/A   Mostly Cloudy
3:58 PM 79.2 °F 69.3 °F 72% 30.01 in 10.0 mi South 9.2 mph - 0.00 in   Partly Cloudy
4:58 PM 77.4 °F 69.4 °F 76% 30.03 in 10.0 mi South 8.1 mph - N/A   Mostly Cloudy
5:58 PM 75.0 °F 69.4 °F 83% 30.03 in 10.0 mi South 8.1 mph - N/A   Partly Cloudy
6:58 PM 72.7 °F 69.3 °F 89% 30.04 in 10.0 mi South 10.4 mph - N/A   Clear
7:58 PM 72.3 °F 69.1 °F 89% 30.04 in 10.0 mi South 6.9 mph - N/A   Clear
8:58 PM 72.3 °F 69.4 °F 91% 30.05 in 10.0 mi South 10.4 mph - N/A   Partly Cloudy
9:43 PM 71.6 °F 69.8 °F 94% 30.05 in 10.0 mi South 10.4 mph - N/A   Mostly Cloudy
9:48 PM 71.6 °F 69.8 °F 94% 30.05 in 10.0 mi South 12.7 mph - N/A   Mostly Cloudy
9:53 PM 71.6 °F 69.8 °F 94% 30.05 in 10.0 mi South 12.7 mph - N/A   Mostly Cloudy
9:58 PM 72.0 °F 70.2 °F 94% 30.05 in 10.0 mi South 12.7 mph - N/A   Mostly Cloudy
10:03 PM 71.6 °F 69.8 °F 94% 30.05 in 10.0 mi South 12.7 mph - N/A   Scattered Clouds
10:58 PM 71.6 °F 70.7 °F 97% 30.06 in 10.0 mi South 11.5 mph 20.7 mph N/A   Partly Cloudy
11:08 PM 71.6 °F 71.6 °F 100% 30.06 in 10.0 mi South 9.2 mph - N/A   Mostly Cloudy
11:13 PM 71.6 °F 71.6 °F 100% 30.06 in 10.0 mi SSW 8.1 mph - N/A   Mostly Cloudy
11:18 PM 71.6 °F 71.6 °F 100% 30.06 in 10.0 mi South 6.9 mph - N/A   Mostly Cloudy
11:27 PM 71.6 °F 71.6 °F 100% 30.06 in 10.0 mi South 8.1 mph - N/A   Light Drizzle
11:32 PM 71.6 °F 71.6 °F 100% 30.06 in 7.0 mi West 13.8 mph 17.3 mph N/A Rain Light Rain
11:42 PM 69.8 °F 69.8 °F 100% 30.08 in 6.0 mi West 8.1 mph 17.3 mph N/A Rain Heavy Rain
11:47 PM 69.8 °F 69.8 °F 100% 30.08 in 10.0 mi WNW 9.2 mph - N/A Rain Light Rain
11:52 PM 68.0 °F 68.0 °F 100% 30.08 in 10.0 mi WNW 6.9 mph - N/A Rain Light Rain
11:58 PM 68.4 °F 68.2 °F 99% 30.09 in 10.0 mi WNW 13.8 mph - 0.11 in   Drizzle